[[{"header":{"parameterUnit":"m.s-1","parameterCategory":1,"la1":30.2991,"la2":30.254,"lo1":-89.0895,"lo2":-89.0444,"dy":0.0017,"dx":0.0017,"nx":28,"ny":28,"refTime":"2023-08-28T03:00:00:Z","depth":0,"parameterNumber":2,"parameterNumberName":"U-component_of_WINDS"},"data":[0,0,0,0,0,0,0,0,0,0,0,0,0,0,0,0,0,0,0,0,0,0,0,0,0,0,0,0,0,0,0,0,0,0,0,0,0,0,0,0,0,0,0,0,0,0,0,0,0,0,0,0,0,0,0,0,0,0,-0.5765,-0.5764,0,-0.5739,-0.5739,-0.5739,-0.57,-0.57,-0.5699,-0.5698,-0.5673,-0.5673,-0.5673,0,0,0,0,0,0,0,0,0,0,0,0,0,-0.5778,-0.5778,-0.5765,-0.5764,-0.5764,-0.574,-0.5739,-0.5739,-0.57,-0.57,-0.5699,-0.5698,-0.5673,-0.5673,-0.5673,0,0,0,0,0,0,0,0,0,0,0,0,0,-0.5765,-0.5778,-0.5765,-0.5742,-0.574,-0.574,-0.5739,-0.5739,-0.5701,-0.57,-0.5699,-0.5698,-0.5673,-0.5673,-0.5672,-0.5693,0,0,-0.5672,-0.5672,0,0,0,0,0,0,0,0,-0.5766,-0.5764,-0.5746,-0.5743,-0.5741,-0.5722,-0.5735,-0.5723,-0.5701,-0.5715,-0.5698,-0.5697,-0.569,-0.5688,-0.5686,-0.5692,-0.5691,-0.5672,-0.5672,-0.5672,-0.5672,0,0,0,0,0,0,0,-0.5767,-0.5765,-0.5755,-0.5745,-0.5742,-0.5733,-0.5729,-0.5732,-0.5709,-0.5714,-0.5711,-0.5709,-0.5688,-0.5686,-0.5685,-0.569,-0.5672,-0.5672,-0.5672,-0.5672,-0.571,-0.5711,0,0,0,0,0,0,-0.5771,-0.5766,-0.5755,-0.5754,-0.5751,-0.5733,-0.573,-0.5729,-0.5709,-0.5704,-0.571,-0.5707,-0.5687,-0.5685,-0.5684,-0.5705,-0.5672,-0.5672,-0.5672,-0.5709,-0.571,-0.5711,0,0,0,0,0,0,-0.5771,-0.577,-0.5756,-0.5759,-0.5757,-0.5734,-0.5734,-0.5729,-0.5727,-0.5705,-0.5701,-0.5712,-0.5686,-0.5684,-0.5691,-0.5704,-0.5672,-0.5672,-0.5707,-0.5709,-0.571,-0.5749,0,0,0,0,0,0,-0.5772,-0.5771,-0.5779,-0.576,-0.5757,-0.5764,-0.5734,-0.5729,-0.5727,-0.5723,-0.5706,-0.5702,-0.5685,-0.5691,-0.569,-0.5703,-0.5672,-0.5706,-0.5708,-0.571,-0.5746,-0.5752,-0.5756,0,0,0,0,0,-0.5773,-0.5791,-0.5779,-0.5778,-0.5766,-0.5765,-0.5763,-0.5743,-0.5728,-0.5735,-0.5721,-0.5703,-0.5703,-0.5692,-0.5691,-0.5704,-0.5705,-0.5707,-0.571,-0.5744,-0.5751,-0.5756,0,0,0,0,0,0,-0.5812,-0.5788,-0.5775,-0.5788,-0.5778,-0.5758,-0.5767,-0.575,-0.5746,-0.5742,-0.5717,-0.5714,-0.5723,-0.5714,-0.5703,-0.5722,-0.5701,-0.5703,-0.5727,-0.5733,-0.5738,-0.574,-0.5672,0,0,0,0,0,-0.5822,-0.5824,-0.5802,-0.5815,-0.5812,-0.579,-0.5789,-0.5774,-0.5764,-0.576,-0.5746,-0.5737,-0.5734,-0.5733,-0.573,-0.5745,-0.574,-0.5753,-0.5758,-0.5762,-0.5765,-0.577,-0.5776,-0.5719,-0.5719,-0.5718,0,0,-0.5843,-0.583,-0.5833,-0.5823,-0.5814,-0.5816,-0.5787,-0.579,-0.5791,-0.576,-0.5765,-0.5755,-0.5742,-0.5753,-0.5757,-0.5746,-0.5779,-0.5765,-0.5769,-0.5769,-0.5773,-0.5779,-0.5783,-0.572,-0.572,-0.572,0,0,-0.5882,-0.5873,-0.5882,-0.5874,-0.5861,-0.5846,-0.5849,-0.5831,-0.5823,-0.5827,-0.5804,-0.5804,-0.5801,-0.5792,-0.5788,-0.5822,-0.5804,-0.5822,-0.5847,-0.5853,-0.5858,-0.5862,-0.5873,-0.5877,-0.5824,-0.5824,-0.5824,0,-0.591,-0.5912,-0.5889,-0.5893,-0.5889,-0.5861,-0.587,-0.5863,-0.585,-0.5847,-0.5835,-0.5829,-0.5819,-0.5827,-0.5835,-0.5833,-0.5834,-0.5824,-0.5859,-0.5863,-0.5866,-0.5876,-0.5881,-0.5826,-0.5826,-0.5826,-0.5826,0,-0.5946,-0.5947,-0.5956,-0.5944,-0.5941,-0.5947,-0.5925,-0.5925,-0.591,-0.5897,-0.5901,-0.5887,-0.588,-0.5881,-0.5867,-0.5886,-0.5879,-0.5864,-0.5842,-0.5874,-0.5883,-0.5887,-0.583,-0.5829,-0.5828,-0.5828,0,0,-0.601,-0.5984,-0.5988,-0.5981,-0.5964,-0.5964,-0.5969,-0.5962,-0.5961,-0.5953,-0.5956,-0.5953,-0.5937,-0.5932,-0.5917,-0.5922,-0.5949,-0.5905,-0.5904,-0.5913,-0.5968,-0.5979,-0.5985,-0.5937,-0.5937,-0.5938,-0.5968,0,-0.6045,-0.6052,-0.6031,-0.6043,-0.6043,-0.6016,-0.602,-0.6009,-0.5997,-0.5995,-0.598,-0.5979,-0.5959,-0.5955,-0.5959,-0.5945,-0.5959,-0.5942,-0.5938,-0.5938,-0.5942,-0.599,-0.6002,-0.6032,-0.5972,-0.5973,-0.5973,0,-0.6087,-0.608,-0.6092,-0.6073,-0.6072,-0.6076,-0.6067,-0.6066,-0.6053,-0.6043,-0.6037,-0.6018,-0.6021,-0.6,-0.6003,-0.5991,-0.5988,-0.5981,-0.5981,-0.598,-0.5958,-0.5989,-0.6041,-0.6045,-0.5979,-0.5978,-0.5978,0,-0.6132,-0.6125,-0.6131,-0.6126,-0.6104,-0.6108,-0.6099,-0.6085,-0.6081,-0.6073,-0.6071,-0.6063,-0.6059,-0.6053,-0.6033,-0.602,-0.6037,-0.6015,-0.6029,-0.6029,-0.6033,-0.6033,-0.6085,-0.6033,-0.6033,-0.6033,-0.6033,0,-0.6173,-0.6181,-0.615,-0.6154,-0.6162,-0.6138,-0.6146,-0.6134,-0.6122,-0.6122,-0.6098,-0.6099,-0.6072,-0.6069,-0.6053,-0.6057,-0.6056,-0.6047,-0.6043,-0.6049,-0.605,-0.6047,-0.6044,-0.6034,-0.6033,-0.6033,-0.6033,0,-0.6224,-0.6204,-0.6208,-0.6187,-0.6182,-0.6188,-0.617,-0.6172,-0.6157,-0.6157,-0.6156,-0.6133,-0.6129,-0.6108,-0.6098,-0.6087,-0.6096,-0.6088,-0.6101,-0.6098,-0.6112,-0.6111,-0.6163,-0.6168,-0.6113,-0.6114,-0.6114,0,-0.6251,-0.6257,-0.6235,-0.6234,-0.6226,-0.6224,-0.622,-0.6196,-0.6193,-0.6178,-0.6181,-0.6175,-0.6168,-0.6162,-0.6144,-0.6137,-0.6128,-0.6146,-0.6126,-0.6132,-0.6127,-0.6127,-0.6126,-0.6151,-0.6152,-0.6152,-0.6153,0,-0.6302,-0.6291,-0.6286,-0.6278,-0.6274,-0.6266,-0.6257,-0.6257,-0.623,-0.6228,-0.6223,-0.6218,-0.6208,-0.6201,-0.619,-0.618,-0.6162,-0.6159,-0.6161,-0.6168,-0.6174,-0.617,-0.6112,-0.6158,-0.6157,-0.6157,-0.6157,-0.6156,-0.6341,-0.6344,-0.6329,-0.6324,-0.6315,-0.6307,-0.6307,-0.6292,-0.6287,-0.6277,-0.6263,-0.626,-0.6245,-0.6229,-0.622,-0.6217,-0.6206,-0.621,-0.6211,-0.6212,-0.6215,-0.6175,-0.6215,-0.6215,-0.6214,-0.6214,-0.6214,0,-0.6389,-0.6378,-0.6374,-0.6362,-0.6358,-0.634,-0.6329,-0.6326,-0.6324,-0.6312,-0.6306,-0.6299,-0.6292,-0.6274,-0.6265,-0.6265,-0.6256,-0.6264,-0.6263,-0.6261,-0.6225,-0.6224,-0.6271,-0.6271,-0.6271,-0.6271,-0.6271,-0.6271,-0.6414,-0.6418,-0.6405,-0.6404,-0.6392,-0.6389,-0.6384,-0.6375,-0.6366,-0.6359,-0.6354,-0.6341,-0.6326,-0.6316,-0.6308,-0.6303,-0.63,-0.631,-0.6302,-0.6269,-0.6264,-0.6258,-0.6257,-0.631,-0.631,-0.6338,-0.6338,-0.6338]},{"header":{"parameterUnit":"m.s-1","parameterCategory":1,"la1":30.2991,"la2":30.254,"lo1":-89.0895,"lo2":-89.0444,"dy":0.0017,"dx":0.0017,"nx":28,"ny":28,"refTime":"2023-08-28T03:00:00:Z","depth":0,"parameterNumber":3,"parameterNumberName":"V-component_of_WINDS"},"data":[0,0,0,0,0,0,0,0,0,0,0,0,0,0,0,0,0,0,0,0,0,0,0,0,0,0,0,0,0,0,0,0,0,0,0,0,0,0,0,0,0,0,0,0,0,0,0,0,0,0,0,0,0,0,0,0,0,0,-0.2257,-0.2257,0,-0.2278,-0.2278,-0.2278,-0.2324,-0.2325,-0.2326,-0.2327,-0.2345,-0.2345,-0.2345,0,0,0,0,0,0,0,0,0,0,0,0,0,-0.2254,-0.2254,-0.2257,-0.2257,-0.2258,-0.2278,-0.2278,-0.2278,-0.2324,-0.2325,-0.2326,-0.2327,-0.2346,-0.2345,-0.2345,0,0,0,0,0,0,0,0,0,0,0,0,0,-0.2263,-0.2254,-0.2257,-0.2283,-0.2285,-0.2278,-0.2278,-0.2278,-0.2323,-0.2325,-0.2326,-0.2327,-0.2346,-0.2345,-0.2345,-0.2313,0,0,-0.2343,-0.2343,0,0,0,0,0,0,0,0,-0.2263,-0.2263,-0.2279,-0.2281,-0.2284,-0.23,-0.2284,-0.229,-0.2323,-0.2309,-0.2327,-0.2328,-0.2329,-0.233,-0.2331,-0.2314,-0.2315,-0.2343,-0.2342,-0.2342,-0.2342,0,0,0,0,0,0,0,-0.2262,-0.2263,-0.2265,-0.2279,-0.2282,-0.2292,-0.2295,-0.2285,-0.2311,-0.231,-0.2314,-0.2315,-0.2331,-0.2331,-0.2331,-0.2315,-0.2343,-0.2342,-0.2342,-0.2342,-0.2271,-0.227,0,0,0,0,0,0,-0.2258,-0.2262,-0.2265,-0.2266,-0.2277,-0.2291,-0.2294,-0.2293,-0.2311,-0.2315,-0.2314,-0.2317,-0.2331,-0.2332,-0.2332,-0.2295,-0.2342,-0.2342,-0.2341,-0.2273,-0.2271,-0.2269,0,0,0,0,0,0,-0.2258,-0.2258,-0.2264,-0.2265,-0.2266,-0.229,-0.2288,-0.2293,-0.2293,-0.2314,-0.2318,-0.231,-0.2332,-0.2333,-0.2317,-0.2296,-0.2341,-0.2341,-0.2275,-0.2272,-0.227,-0.2221,0,0,0,0,0,0,-0.2258,-0.2258,-0.2247,-0.2264,-0.2266,-0.2249,-0.2287,-0.2292,-0.2292,-0.2297,-0.2311,-0.2315,-0.2333,-0.2318,-0.2317,-0.2296,-0.2341,-0.2277,-0.2274,-0.2271,-0.2225,-0.2217,-0.2211,0,0,0,0,0,-0.2257,-0.2232,-0.2246,-0.2246,-0.2253,-0.2248,-0.2249,-0.2271,-0.2291,-0.2279,-0.2292,-0.2315,-0.2299,-0.2316,-0.2315,-0.2294,-0.2278,-0.2274,-0.2271,-0.2228,-0.2219,-0.2211,0,0,0,0,0,0,-0.2211,-0.2235,-0.225,-0.223,-0.2237,-0.2256,-0.2242,-0.2261,-0.2262,-0.2266,-0.2293,-0.2296,-0.2276,-0.2284,-0.2302,-0.2263,-0.2292,-0.2288,-0.2259,-0.2251,-0.2244,-0.2243,-0.234,0,0,0,0,0,-0.2198,-0.2193,-0.2214,-0.2194,-0.2196,-0.2218,-0.2217,-0.2234,-0.2241,-0.2244,-0.2256,-0.2262,-0.2258,-0.2255,-0.2253,-0.2226,-0.2229,-0.2211,-0.2205,-0.2199,-0.2195,-0.218,-0.2171,-0.2258,-0.2258,-0.2258,0,0,-0.2172,-0.2185,-0.218,-0.2185,-0.2192,-0.2185,-0.222,-0.2212,-0.2206,-0.2243,-0.2228,-0.2237,-0.2245,-0.2223,-0.2214,-0.2229,-0.2172,-0.2195,-0.219,-0.2189,-0.2175,-0.2167,-0.216,-0.2256,-0.2256,-0.2256,0,0,-0.2121,-0.213,-0.2114,-0.212,-0.213,-0.2145,-0.2141,-0.2157,-0.2164,-0.215,-0.2177,-0.217,-0.2164,-0.2168,-0.2169,-0.2117,-0.2137,-0.2116,-0.208,-0.2065,-0.2058,-0.2052,-0.2032,-0.2025,-0.2112,-0.2112,-0.2112,0,-0.2087,-0.2078,-0.2103,-0.2092,-0.2093,-0.2126,-0.2108,-0.2113,-0.2122,-0.2121,-0.2137,-0.2129,-0.2137,-0.2115,-0.2103,-0.2103,-0.2098,-0.2114,-0.2057,-0.2052,-0.2046,-0.2028,-0.202,-0.2109,-0.211,-0.211,-0.211,0,-0.2035,-0.2028,-0.2013,-0.2021,-0.202,-0.2006,-0.2028,-0.2024,-0.204,-0.2053,-0.2037,-0.2047,-0.2047,-0.2044,-0.2059,-0.2024,-0.2032,-0.2053,-0.2082,-0.2035,-0.2018,-0.2011,-0.2105,-0.2106,-0.2107,-0.2108,0,0,-0.1955,-0.1976,-0.197,-0.1973,-0.1986,-0.1981,-0.1968,-0.1968,-0.1963,-0.1968,-0.1956,-0.1949,-0.1968,-0.1969,-0.1985,-0.1972,-0.1928,-0.1994,-0.1994,-0.198,-0.1888,-0.1872,-0.1863,-0.1942,-0.1941,-0.194,-0.1887,0,-0.1906,-0.1885,-0.1907,-0.1881,-0.1874,-0.1904,-0.1893,-0.1898,-0.1909,-0.1904,-0.1916,-0.191,-0.1936,-0.1937,-0.1925,-0.1936,-0.191,-0.1941,-0.193,-0.1929,-0.1926,-0.1854,-0.1838,-0.1787,-0.188,-0.1879,-0.1878,0,-0.1846,-0.1847,-0.1821,-0.1834,-0.1832,-0.1822,-0.1822,-0.1818,-0.1824,-0.1833,-0.1834,-0.1854,-0.184,-0.1869,-0.1849,-0.1869,-0.1866,-0.1871,-0.187,-0.1869,-0.19,-0.185,-0.1772,-0.1763,-0.1868,-0.1869,-0.187,0,-0.1788,-0.1784,-0.1768,-0.1769,-0.1785,-0.1776,-0.1782,-0.179,-0.1789,-0.1789,-0.1788,-0.1787,-0.1786,-0.1783,-0.1802,-0.1821,-0.1779,-0.181,-0.1785,-0.1784,-0.1774,-0.1774,-0.1692,-0.1774,-0.1774,-0.1774,-0.1774,0,-0.1731,-0.1713,-0.1742,-0.1731,-0.1712,-0.1736,-0.1716,-0.1725,-0.1731,-0.1722,-0.1749,-0.1739,-0.1764,-0.1757,-0.1771,-0.1752,-0.1752,-0.1757,-0.1761,-0.1754,-0.1753,-0.1752,-0.1755,-0.1772,-0.1772,-0.1773,-0.1773,0,-0.1663,-0.1682,-0.1666,-0.1681,-0.1685,-0.167,-0.1683,-0.1673,-0.1685,-0.1673,-0.1672,-0.1691,-0.1683,-0.1701,-0.1697,-0.1706,-0.1678,-0.1688,-0.1676,-0.1678,-0.1652,-0.1653,-0.1565,-0.1554,-0.1643,-0.1643,-0.1642,0,-0.1625,-0.1612,-0.1626,-0.1622,-0.1627,-0.162,-0.1618,-0.1641,-0.1638,-0.1643,-0.1632,-0.1627,-0.1625,-0.1611,-0.1624,-0.162,-0.1629,-0.1598,-0.1628,-0.1621,-0.1627,-0.1627,-0.1625,-0.1592,-0.159,-0.159,-0.1589,0,-0.1554,-0.1564,-0.1561,-0.156,-0.1557,-0.1557,-0.156,-0.1554,-0.1579,-0.1573,-0.1566,-0.1564,-0.1559,-0.1553,-0.1551,-0.1556,-0.1576,-0.1579,-0.1573,-0.1566,-0.1558,-0.156,-0.1657,-0.1581,-0.1582,-0.1582,-0.1583,-0.1583,-0.1499,-0.1489,-0.1496,-0.1491,-0.1495,-0.1496,-0.1488,-0.1499,-0.1493,-0.1491,-0.1505,-0.1494,-0.15,-0.15,-0.1503,-0.1494,-0.1507,-0.1499,-0.1496,-0.1493,-0.1488,-0.1561,-0.1494,-0.1494,-0.1494,-0.1494,-0.1495,0,-0.1429,-0.1435,-0.143,-0.1432,-0.1428,-0.1447,-0.145,-0.1445,-0.1436,-0.1439,-0.1436,-0.1427,-0.142,-0.1432,-0.1427,-0.1418,-0.1426,-0.1416,-0.1416,-0.1416,-0.1477,-0.1482,-0.1409,-0.1409,-0.1409,-0.1409,-0.1409,-0.1409,-0.1391,-0.1374,-0.1384,-0.1368,-0.1374,-0.1365,-0.1364,-0.1365,-0.1368,-0.1356,-0.1352,-0.136,-0.1366,-0.1361,-0.1356,-0.1359,-0.1356,-0.1341,-0.1348,-0.1404,-0.1412,-0.142,-0.1425,-0.1341,-0.1341,-0.1288,-0.1287,-0.1287]}]]